COSMOS 2251 DEB, 34478

Orbit data source: Space-Track

COSMOS 2251 DEB, 34478 is space debris in LEO originally from a launch on Wed, 16 Jun 1993 UTC launched from the Plesetsk Missile And Space Complex (PKMTR). The debris from Iridium 33, an American commercial communications satellite, has been tracked extensively since its accidental collision with the defunct Russian satellite Cosmos 2251 in 2009. This event, occurring at high speed in low Earth orbit (LEO), generated thousands of pieces of space debris, significantly increasing the risk of further collisions. The Iridium 33 debris cloud has impacted space traffic management and orbital debris mitigation strategies, making it a subject of ongoing study in space situational awareness.

Loading next visibility...
Identifier
34478, 1993-036TX
Orbit
LEO
Country
Flag of CISCIS
Related business
Manufacturer
Unknown
Mission
Spacecraft
Bus & Motor
Unknown
Mass
Unknown
Launch date (UTC)
1993-06-16 (33 years ago)
Launch vehicle
Unknown
Launch site
Plesetsk Missile And Space Complex (PKMTR)
Object type
Payload
Rocket body
Debris
Shape & HBR
Unknown shape, 0.1 m
Radar Cross Section
Small (<0.1 m²)

Expand to show TLE details & history
Last TLE update: 16 hours ago

TLE from 16 hours ago
0 COSMOS 2251 DEB
1 34478U 93036TX  26145.10202544  .00099900  00000-0  31185-2 0  9990
2 34478  74.0376  24.8974 0032680 179.9618 180.1595 15.32213535914541
Epoch: 2026-05-25T02:26Z
TLE epoch observation values (Epoch: 2026-05-25T02:26:54.998Z)
Latitude
0.00004°
Longitude
105.47361°
Altitude
494.317 km
Speed
7.605 km/s
True Right ascension
01h 39m 35s
True Declination
0° 00' 00"
Sunlit
Object was in daylight at epoch
Visualization orbit readout
Latitude
Unknown
Longitude
Unknown
Altitude
Unknown
Speed
Unknown
Apparent Right ascension
Unknown
Apparent Declination
Unknown
Sunlit
N/A
Visualization observer readout
Local Sidereal Time
04:09:26
Azimuth
Unknown
Elevation
Unknown
Doppler factor
Unknown
Orbital elements
Apogee altitude
489.097 km
Perigee altitude
444.359 km
Semi-major axis
6,844.865 km
Eccentricity
0.00327
Inclination
74.0376°
RAAN
24.8974°
Arg. of periapsis
179.9618°
True anomaly
180.15846°
Mean anomaly
180.1595°
Eccentric anomaly
180.15898°
Mean motion
3.83262 °/min
Orbital period
93.93 mins
BSTAR
0.0031185

Documentation

Showing up to 5 results
|